Weather History for KPRC - March, 2012

Change the Weather History Date:

Friday, March 16, 2012

  Actual Average Record
Temperature  
Mean Temperature 53 °F 46 °F  
Max Temperature 69 °F 60 °F 82 °F (2007)
Min Temperature 37 °F 33 °F 20 °F (1956)
Degree Days  
Heating Degree Days 12    
Month to date heating degree days  
Since 1 July heating degree days  
Cooling Degree Days 0    
Month to date cooling degree days  
Year to date cooling degree days  
Growing Degree Days 3 (Base 50)    
Moisture  
Dew Point 18 °F    
Average Humidity 27    
Maximum Humidity 48    
Minimum Humidity 10    
Precipitation  
Precipitation 0.00 in 0.03 in 0.60 in (1986)
Month to date precipitation 0.63  
Year to date precipitation 3.14  
Sea Level Pressure  
Sea Level Pressure 29.88 in    
Wind  
Wind Speed 7 mph (South)    
Max Wind Speed 15 mph    
Max Gust Speed 26 mph    
Visibility 10 miles    
Events      
T = Trace of Precipitation, MM = Missing Value Source: NWS Daily Summary

Daily Weather History Graph

Daily Weather History Graph

Search for Another Location

Airport or City:

Trip Planner

Search our weather history database for the weather conditions in past years. The results will help you decide how hot, cold, wet, or windy it might be!

Date:

Astronomy

Mar. 16, 2012 Rise Set
Actual Time 6:38 AM MST 6:38 PM MST
Civil Twilight 6:12 AM MST 7:03 PM MST
Nautical Twilight 5:43 AM MST 7:33 PM MST
Astronomical Twilight 5:14 AM MST 8:02 PM MST
Moon 2:46 AM MST (3/16) 1:15 PM MST (3/16)
Length of Visible Light 12h 50m
Length of Day
12h 00m
Waning Crescent, 32% of the Moon is Illuminated
Mar 16
Waning Crescent
Mar 22
New
Mar 30
First Quarter
Apr 6
Full
Apr 13
Last Quarter

Hourly Weather History & Observations

Time (MST) Temp. Windchill Dew Point Humidity Pressure Visibility Wind Dir Wind Speed Gust Speed Precip Events Conditions
12:53 AM 44.1 °F - 16.0 °F 32% 29.96 in 10.0 mi Calm Calm - N/A   Clear
1:53 AM 42.1 °F 38.4 °F 18.0 °F 38% 29.94 in 10.0 mi SSE 5.8 mph - N/A   Clear
2:53 AM 39.9 °F 34.5 °F 19.0 °F 43% 29.93 in 10.0 mi South 8.1 mph - N/A   Clear
3:53 AM 41.0 °F 34.3 °F 18.0 °F 40% 29.91 in 10.0 mi SSW 11.5 mph - N/A   Clear
4:53 AM 39.2 °F 35.9 °F 19.4 °F 45% 30.06 in 10.0 mi SSW 4.6 mph - N/A   Clear
5:53 AM 39.0 °F 32.8 °F 19.0 °F 45% 29.92 in 10.0 mi South 9.2 mph - N/A   Clear
6:53 AM 37.0 °F 34.5 °F 19.0 °F 48% 29.95 in 10.0 mi SSW 3.5 mph - N/A   Clear
7:53 AM 46.0 °F 41.9 °F 19.9 °F 35% 29.94 in 10.0 mi SSW 8.1 mph - N/A   Clear
8:53 AM 55.9 °F - 16.0 °F 21% 29.93 in 10.0 mi Calm Calm - N/A   Clear
9:53 AM 61.0 °F - 12.9 °F 15% 29.92 in 10.0 mi Variable 4.6 mph - N/A   Clear
10:53 AM 64.9 °F - 7.0 °F 10% 29.91 in 10.0 mi SSW 13.8 mph - N/A   Clear
11:53 AM 68.0 °F - 14.0 °F 12% 29.88 in 10.0 mi South 12.7 mph 17.3 mph N/A   Clear
12:53 PM 69.8 °F - 16.0 °F 13% 29.87 in 10.0 mi SSW 12.7 mph - N/A   Clear
1:53 PM 69.8 °F - 16.0 °F 13% 29.85 in 10.0 mi South 12.7 mph 21.9 mph N/A   Clear
2:53 PM 69.1 °F - 18.0 °F 14% 29.84 in 10.0 mi SW 12.7 mph 19.6 mph N/A   Clear
3:53 PM 68.0 °F - 16.0 °F 14% 29.82 in 10.0 mi SSW 15.0 mph 26.5 mph N/A   Clear
4:53 PM 66.0 °F - 19.0 °F 17% 29.82 in 10.0 mi SSW 11.5 mph 18.4 mph N/A   Clear
5:53 PM 63.0 °F - 19.9 °F 19% 29.84 in 10.0 mi SSW 13.8 mph - N/A   Clear
6:53 PM 60.1 °F - 21.0 °F 22% 29.85 in 10.0 mi SSW 6.9 mph - N/A   Clear
7:53 PM 55.9 °F - 21.0 °F 26% 29.84 in 10.0 mi Variable 3.5 mph - N/A   Clear
8:53 PM 57.0 °F - 21.0 °F 25% 29.81 in 10.0 mi SE 6.9 mph - N/A   Clear
9:53 PM 54.0 °F - 21.9 °F 29% 29.80 in 10.0 mi SSE 6.9 mph - N/A   Clear
10:53 PM 52.0 °F - 21.9 °F 31% 29.78 in 10.0 mi SSE 5.8 mph - N/A   Clear
11:53 PM 51.1 °F - 21.0 °F 31% 29.75 in 10.0 mi SE 3.5 mph - N/A   Clear